This demonstration page uses our WeatherBlox Daily Observations layout. Learn more.

Left ArrowRight Arrow

Hourly Observations for December 31, 2018

Temp ( °F °C ) Dew Point ( °F °C ) Humidity (%) Winds ( mph kmh ) Pressure ( in mb ) Visibility ( mi km ) Precip ( " mm )
12:53 am 00:53 Cloudy with Mist and Fog 55 12.8 55 12.8 100 100 E 3 6 30.12 1020 3 5 0.00 0.03
1:05 am 01:05 Cloudy with Mist and Fog 55 12.8 55 12.8 100 100 ENE 5 7 30.12 1020 3 4 0.00 0.00
1:34 am 01:34 Cloudy with Mist and Fog 55 12.8 55 12.8 100 100 ENE 3 6 30.12 1020 4 6 0.00 0.00
1:53 am 01:53 Cloudy with Mist and Fog 55 12.8 55 12.8 100 100 E 5 7 30.11 1020 3 4 0.00 0.00
2:13 am 02:13 Cloudy with Mist and Fog 55 12.8 55 12.8 100 100 E 5 7 30.12 1020 2 2 0.00 0.00
2:53 am 02:53 Cloudy with Mist and Fog 55 12.8 55 12.8 100 100 E 3 6 30.12 1020 2 3 0.00 0.00
3:08 am 03:08 Cloudy with Mist and Fog 55 12.8 55 12.8 100 100 ENE 3 6 30.12 1020 2 3 0.00 0.00
3:20 am 03:20 Cloudy with Mist and Fog 55 12.8 55 12.8 100 100 Calm 30.12 1020 1 2 0.00 0.00
3:53 am 03:53 Cloudy with Mist and Fog 56 13.3 56 13.3 100 100 ESE 3 6 30.10 1019 2 2 0.00 0.00
4:24 am 04:24 Cloudy with Mist and Fog 56 13.3 56 13.3 100 100 Calm 30.12 1020 1 1 0.00 0.00
4:46 am 04:46 Cloudy with Mist and Fog 56 13.3 56 13.3 100 100 ENE 3 6 30.09 1019 1 2 0.00 0.00
4:53 am 04:53 Cloudy with Mist and Fog 56 13.3 56 13.3 100 100 ENE 3 6 30.08 1019 1 2 0.00 0.00
5:39 am 05:39 Cloudy with Mist and Fog 56 13.3 56 13.3 100 100 Calm 30.09 1019 2 3 0.00 0.00
5:53 am 05:53 Cloudy with Mist and Fog 56 13.3 56 13.3 100 100 Calm 30.09 1019 2 3 0.00 0.00
6:36 am 06:36 Cloudy with Mist and Fog 56 13.3 56 13.3 100 100 Calm 30.09 1019 3 5 0.00 0.00
6:53 am 06:53 Cloudy with Mist and Fog 57 13.9 57 13.9 100 100 Calm 30.10 1019 5 8 0.00 0.00
7:53 am 07:53 Cloudy with Mist and Fog 58 14.4 58 14.4 100 100 SE 7 11 30.11 1020 3 5 0.00 0.00
8:53 am 08:53 Cloudy with Mist and Fog 59 15 59 15 100 100 SE 9 15 30.11 1020 2 3 0.00 0.00
9:53 am 09:53 Cloudy with Mist and Fog 60 15.6 60 15.6 100 100 SSE 6 9 30.12 1020 2 3 0.00 0.00
10:53 am 10:53 Cloudy with Mist and Fog 62 16.7 62 16.7 100 100 SSE 8 13 30.10 1019 3 5 0.00 0.00
11:19 am 11:19 Cloudy with Mist and Fog 63 17.2 63 17.2 100 100 S 7 11 30.09 1019 3 5 0.00 0.03
11:38 am 11:38 Cloudy with Mist and Fog 64 17.8 64 17.8 100 100 S 8 13 30.09 1019 3 5 0.00 0.03
11:53 am 11:53 Cloudy with Mist and Fog 65 18.3 64 17.8 97 97 S 7 11 30.06 1018 6 10 0.00 0.03
12:09 pm 12:09 Cloudy with Mist and Fog 66 18.9 65 18.3 96 96 S 7 11 30.06 1018 6 10 0.00 0.00
12:49 pm 12:49 Cloudy 66 19 64 18 94 94 S 10 17 30.03 1017 10 16 0.00 0.00
12:53 pm 12:53 Cloudy 67 19.4 65 18.3 93 93 S 10 17 30.03 1017 10 16 0.00 0.00
1:17 pm 13:17 Cloudy 67 19.4 66 18.9 97 97 S 9 15 30.03 1017 10 16 0.00 0.00
1:53 pm 13:53 Cloudy with Light Rain 68 20 65 18.3 90 90 S 9 15 30.00 1016 10 16 0.00 0.03
2:53 pm 14:53 Mostly Cloudy 70 21.1 65 18.3 84 84 S 10 17 29.97 1015 10 16 0.01 0.25
3:53 pm 15:53 Cloudy 70 21.1 63 17.2 79 79 S 13 20 29.95 1014 10 16 0.00 0.00
4:53 pm 16:53 Cloudy 70 21.1 62 16.7 76 76 S 9 15 29.98 1015 10 16 0.00 0.00
5:53 pm 17:53 Mostly Clear 69 20.6 61 16.1 76 76 S 7 11 29.98 1015 10 16 0.00 0.00
6:53 pm 18:53 Cloudy 67 19.4 61 16.1 81 81 SSE 9 15 30.00 1016 10 16 0.00 0.00
7:53 pm 19:53 Cloudy 68 20 63 17.2 84 84 S 7 11 29.99 1016 10 16 0.00 0.00
8:04 pm 20:04 Cloudy 68 20 63 17.2 84 84 S 9 15 30.00 1016 10 16 0.00 0.00
8:53 pm 20:53 Cloudy 68 20 64 17.8 87 87 S 8 13 30.00 1016 10 16 0.00 0.00
9:53 pm 21:53 Cloudy with Light Rain 66 18.9 66 18.9 100 100 SW 6 9 30.02 1017 5 8 0.03 0.76
10:07 pm 22:07 Cloudy 65 18.3 65 18.3 100 100 SW 3 6 30.03 1017 10 16 0.00 0.03
10:16 pm 22:16 Cloudy 65 18.3 65 18.3 100 100 Calm 30.03 1017 10 16 0.00 0.03
10:53 pm 22:53 Cloudy 65 18.3 65 18.3 100 100 Calm 30.00 1016 10 16 0.00 0.03
11:53 pm 23:53 Cloudy with Heavy Rain 65 18.3 65 18.3 100 100 WNW 5 7 30.02 1017 2 3 0.06 1.52

Powered by AerisWeather